EHI
0 0 0 0 0 0 0 0 0 0 0 1 2 6 9 11 13 23 37 49 56 61 68 75 77 75 75 77 76 72 70 68 61 52 44 43 46 45 39 37 36 28 20 20
0 0 0 0 0 0 0 0 0 0 0 0 1 4 8 10 12 21 34 46 55 62 69 76 77 75 75 76 75 73 71 67 60 53 45 42 43 41 35 34 35 29 22 22
0 0 0 0 0 0 0 0 0 0 0 0 1 2 5 9 12 18 29 43 55 63 70 77 79 77 75 75 73 71 70 66 61 55 48 42 40 37 32 32 34 31 27 24
0 0 0 0 0 0 0 0 0 0 0 0 0 1 4 9 13 18 27 40 53 63 70 76 79 78 76 73 71 70 71 69 64 58 50 43 39 35 31 31 33 33 29 24
0 0 0 0 0 0 0 0 0 0 0 0 0 1 4 8 13 21 30 40 50 58 65 72 76 76 72 68 67 69 71 69 65 60 53 44 38 33 30 30 34 35 30 25
0 0 0 0 0 0 0 0 0 0 0 0 0 1 3 6 10 19 32 40 46 52 60 67 72 72 67 63 62 65 67 66 63 59 53 46 40 34 31 31 34 36 33 27
0 0 0 0 0 0 0 0 0 0 0 0 0 2 4 5 6 16 30 39 43 48 55 62 67 67 64 61 61 63 66 66 62 58 54 49 43 35 30 29 32 35 32 28
0 0 0 0 0 0 0 0 0 0 0 0 0 2 5 5 5 14 29 37 41 46 53 58 61 62 60 59 61 66 68 67 62 56 53 49 42 32 26 26 27 27 24 21
0 0 0 0 0 0 0 0 0 0 0 0 0 2 5 6 6 15 28 37 41 47 54 58 58 55 52 53 58 64 66 64 58 51 47 43 35 29 24 22 21 19 17 14
0 0 0 0 0 0 0 0 0 0 0 0 0 1 4 6 8 15 26 36 42 47 52 56 54 50 47 50 54 57 58 57 52 46 38 30 28 26 24 20 17 17 16 14
0 0 0 0 0 0 0 0 0 0 0 0 0 0 2 5 7 13 23 34 40 43 47 51 52 49 47 49 51 51 49 47 45 39 29 24 25 28 27 23 19 20 19 18
0 0 0 0 0 0 0 0 0 0 0 0 0 0 1 3 6 11 21 33 39 41 46 51 55 54 52 52 53 50 44 40 36 30 25 23 26 30 30 28 26 24 21 18
0 0 0 0 0 0 0 0 0 0 0 0 0 1 2 3 5 12 22 35 43 46 51 56 61 63 62 62 59 50 41 34 27 24 24 24 24 25 27 28 29 28 25 22
0 0 0 0 0 0 0 0 0 0 0 0 1 2 3 4 7 15 25 36 48 55 58 62 68 71 71 70 64 53 41 33 26 24 26 26 22 21 23 24 25 26 25 24
0 0 0 0 0 0 0 0 0 0 0 0 1 3 4 7 11 19 28 40 54 62 64 67 72 74 74 72 67 58 47 38 30 27 27 27 25 23 23 22 20 21 23 23
0 0 0 0 0 0 0 0 0 0 0 0 1 4 8 11 16 22 32 45 57 65 68 70 72 72 72 71 67 60 52 43 35 30 28 28 27 26 23 21 20 19 20 20
0 0 0 0 0 0 0 0 0 0 1 1 4 7 11 15 18 22 32 44 54 65 72 73 72 72 71 69 65 58 50 42 37 32 29 27 26 24 21 19 18 17 14 13
0 0 0 0 0 0 0 1 1 3 7 9 11 13 13 15 19 23 30 41 53 66 74 74 73 72 72 69 62 53 45 38 34 29 24 24 24 21 18 17 16 13 9 7
0 0 0 0 0 0 2 4 4 7 15 20 21 20 18 17 19 26 35 45 58 69 73 74 72 71 72 69 60 49 39 32 27 23 21 21 21 19 16 15 14 11 8 6
0 0 0 0 0 1 4 7 7 10 19 28 31 31 31 29 29 36 45 53 63 71 73 72 72 72 73 70 61 49 38 30 25 23 23 22 20 17 15 14 12 10 9 8
0 0 0 0 1 3 7 9 12 18 28 36 40 43 45 46 46 48 53 57 64 71 74 72 72 73 73 70 62 52 42 33 27 24 23 21 17 13 12 11 11 11 10 9
0 1 2 2 4 9 15 17 21 31 39 43 45 47 51 54 55 56 57 59 64 71 74 72 71 71 68 64 58 51 44 36 28 24 22 20 14 9 7 8 10 11 10 8
2 5 7 7 10 16 20 22 26 31 38 42 43 44 47 51 53 54 57 60 64 68 70 68 67 64 61 56 51 46 41 35 29 26 23 20 15 10 8 7 8 9 8 7
5 7 10 10 12 16 20 21 22 25 29 34 36 37 40 43 45 47 53 59 62 64 63 61 58 55 52 46 40 38 35 31 29 27 24 20 16 11 10 8 6 6 6 6
8 10 11 11 11 13 16 18 20 23 26 28 28 31 33 35 37 39 44 50 53 55 54 51 48 47 44 37 31 29 29 27 26 25 22 17 13 10 8 6 4 3 3 3
10 12 14 14 13 12 13 16 18 22 27 27 25 28 30 32 34 33 35 38 42 45 45 43 42 42 39 33 27 26 25 24 23 22 19 14 10 8 6 4 3 2 1 1
Wind_Speed
10 11 11 11 10 9 10 9 6 2 2 4 6 3 4 5 5 7 8 9 10 10 11 12 12 12 12 10 10 9 9 8 6 5 5 4 4 3 2 3 5 6 5 5
11 14 14 11 6 5 9 10 9 5 1 4 8 6 3 5 5 6 7 9 10 10 11 12 12 12 12 11 11 10 9 9 7 5 4 3 3 3 3 3 4 6 5 5
15 9 6 9 8 8 9 10 9 7 5 7 10 9 6 5 5 6 8 9 10 11 13 13 12 12 12 12 11 10 9 9 8 7 5 4 3 2 3 3 4 5 5 6
14 14 7 8 9 10 10 9 8 9 9 9 8 6 4 7 6 7 8 9 10 10 12 13 12 12 12 11 11 9 9 8 8 7 7 7 5 5 5 4 4 5 5 5
13 13 11 12 11 11 11 7 7 9 10 11 11 8 3 7 7 6 6 7 9 9 11 12 11 10 10 10 10 10 9 8 8 7 7 6 5 4 3 3 5 5 5 5
16 12 11 12 12 10 8 8 9 10 10 12 11 8 3 3 5 6 8 8 8 9 10 10 10 10 9 9 9 10 9 8 8 8 7 6 6 5 4 4 4 4 4 4
16 16 11 9 12 11 10 9 7 8 8 7 7 6 3 7 6 5 8 8 8 9 10 10 10 10 9 10 10 10 10 9 8 7 7 6 6 5 5 4 4 4 3 3
16 15 16 13 13 11 12 13 10 8 5 1 4 4 3 9 8 6 8 9 9 10 10 10 9 9 8 9 9 10 9 8 8 7 6 5 5 4 3 4 3 3 3 3
12 15 16 16 14 15 13 13 15 14 14 9 5 4 6 7 8 7 10 10 10 9 10 10 9 8 8 8 8 9 9 8 7 7 5 4 4 3 3 2 3 2 2 2
16 12 10 14 12 14 16 12 8 10 9 10 6 4 2 6 6 7 9 10 10 10 10 10 9 9 8 8 7 8 8 7 6 6 5 4 4 4 3 2 3 2 2 1
18 14 12 11 13 13 14 14 11 8 8 9 6 1 3 7 6 7 8 9 10 10 10 9 8 9 9 9 9 8 7 6 6 5 4 3 3 3 3 3 2 2 2 2
15 11 12 12 13 13 14 14 13 9 8 8 8 1 7 7 6 6 8 8 9 9 10 10 9 9 9 9 9 8 7 7 6 5 4 3 2 3 2 2 1 1 1 1
10 10 11 13 12 14 13 13 14 12 9 9 8 2 5 3 4 6 8 9 8 9 10 10 9 8 8 8 8 8 7 7 7 6 5 4 3 3 2 2 2 1 1 1
5 10 13 14 9 11 14 14 14 14 11 10 10 5 6 5 5 7 7 9 9 10 10 9 8 7 7 7 7 7 7 6 6 6 5 4 3 2 2 2 2 2 1 1
7 12 14 16 15 13 12 15 16 15 13 11 8 6 4 4 6 6 7 8 10 10 10 9 8 7 6 6 6 6 6 6 6 5 5 4 3 3 2 2 2 2 2 2
8 9 12 15 17 16 13 12 14 15 14 13 11 6 2 2 5 6 7 8 9 10 10 9 9 9 7 7 7 6 6 6 6 5 5 4 4 3 3 3 3 3 3 3
9 7 10 12 15 16 16 13 11 10 10 11 10 4 3 3 4 3 5 7 8 9 9 9 9 8 7 7 6 7 7 6 6 5 5 5 4 4 4 3 4 4 3 3
5 5 7 11 12 16 12 12 12 10 8 7 4 3 2 4 5 3 3 5 6 8 9 9 9 9 8 8 7 7 7 7 6 6 5 5 5 4 4 4 4 4 3 3
6 5 8 10 13 14 10 7 9 8 4 2 1 0 1 2 4 3 3 4 5 6 8 9 10 10 9 9 8 7 7 7 6 5 5 5 5 4 4 4 4 4 3 3
11 6 8 10 12 10 6 6 6 6 4 3 4 3 3 2 1 3 5 5 6 6 8 9 10 10 9 9 9 8 7 6 5 5 5 5 4 4 4 4 4 3 3 3
14 11 12 13 13 7 5 6 6 6 1 5 5 6 5 5 5 4 5 5 6 7 8 9 9 9 9 8 7 7 6 6 5 5 5 5 4 4 4 4 3 3 3 3
13 12 12 12 13 7 8 5 4 5 6 7 7 6 6 7 7 6 5 6 6 7 8 8 8 8 7 7 7 6 5 5 5 5 5 5 4 3 4 3 3 3 3 3
7 4 4 5 3 4 6 7 7 5 6 6 6 6 6 6 6 6 5 5 6 7 7 7 8 9 7 6 6 6 5 5 5 5 5 4 4 3 3 3 3 2 1 1
4 2 3 1 4 5 6 7 7 7 7 6 6 5 5 5 5 5 5 5 5 6 7 6 7 7 7 5 5 6 6 6 6 5 4 4 4 3 3 2 2 1 1 1
4 3 3 3 1 3 6 6 7 7 6 6 5 5 6 5 5 5 5 5 5 6 5 6 6 6 6 6 6 6 6 6 5 5 4 4 3 4 4 4 4 3 4 3
4 4 4 1 3 3 4 6 6 6 5 5 4 5 5 4 4 4 4 5 5 5 6 6 6 6 6 6 6 5 5 5 5 4 3 3 3 3 3 4 5 10 7 7
Wind_Direction
220 237 243 242 239 271 302 306 303 309 52 305 292 258 181 165 171 157 159 158 162 163 160 154 156 160 161 161 165 170 175 170 170 175 180 188 181 177 182 172 163 175 188 181
232 232 247 267 287 283 278 281 282 279 164 283 286 279 213 181 185 166 166 164 164 165 158 154 158 165 169 170 172 174 178 173 178 179 176 181 178 183 189 181 173 183 185 180
237 244 235 251 257 261 263 269 282 300 302 268 266 256 209 186 183 168 173 167 166 168 162 160 167 172 176 177 179 181 180 175 182 175 177 182 173 188 185 181 184 191 183 189
241 247 247 253 253 252 257 262 278 290 285 285 273 277 169 162 184 183 177 166 161 161 160 163 170 175 179 179 179 176 174 176 181 179 185 186 187 191 193 187 185 189 190 196
237 236 235 242 248 252 262 303 300 283 276 277 274 272 195 173 177 177 159 148 146 152 157 162 170 173 175 176 176 173 171 178 182 186 186 191 197 199 193 191 182 186 188 194
251 244 234 240 243 248 262 271 270 265 266 258 256 259 224 139 148 154 144 140 138 148 146 150 162 162 168 173 172 169 170 176 179 186 186 192 198 195 201 200 186 191 187 190
238 243 233 237 245 227 231 245 251 239 237 256 263 245 157 120 118 126 134 134 133 139 142 149 157 162 168 170 170 168 168 174 178 186 189 193 199 197 206 212 201 196 191 192
219 228 220 217 233 237 216 233 249 269 269 284 259 247 135 117 113 119 130 132 137 144 146 149 155 159 164 167 167 165 165 170 175 182 190 194 197 200 210 214 213 207 202 194
233 225 213 204 213 239 234 228 250 267 278 270 220 203 143 127 138 142 135 138 146 145 141 144 149 152 157 162 160 159 159 163 170 175 174 187 193 201 214 210 213 221 220 208
257 268 228 190 202 225 247 250 248 257 279 286 267 238 151 149 155 141 144 148 145 142 143 143 143 147 148 149 147 146 149 153 158 160 169 175 179 185 196 204 208 209 212 209
239 255 252 200 201 224 221 243 260 275 268 273 284 27 108 157 183 163 152 145 143 153 147 142 141 138 136 139 141 140 144 149 153 155 164 172 174 180 182 188 200 204 206 202
220 238 253 236 206 223 237 227 233 245 263 273 278 215 159 161 171 151 138 133 142 144 142 140 142 139 141 143 142 144 153 156 158 159 164 168 164 165 172 178 182 184 182 191
213 232 241 245 217 205 231 232 229 235 249 262 267 158 119 119 126 125 130 133 147 147 141 142 146 145 143 141 143 147 156 152 152 154 154 151 154 152 157 157 132 117 113 110
246 232 242 242 231 213 214 230 233 233 235 242 254 215 173 185 155 136 138 145 151 146 144 146 140 135 135 137 139 148 152 146 147 141 140 140 147 145 138 130 124 132 136 127
244 234 243 261 267 260 233 221 226 232 244 256 261 250 201 177 145 147 154 150 145 148 149 147 143 139 137 137 141 144 138 134 132 135 141 142 144 136 138 134 130 131 128 118
225 257 251 249 258 260 255 238 225 224 231 245 255 257 182 146 133 145 147 154 154 155 157 154 153 149 148 149 150 144 137 136 135 138 133 131 130 129 126 122 119 106 95 89
207 225 254 254 245 250 250 248 244 239 235 239 246 237 193 158 120 141 151 162 159 158 160 161 158 154 151 150 145 143 140 136 136 130 126 127 125 119 114 118 109 101 90 81
246 237 249 256 257 246 244 247 246 240 247 244 228 211 194 141 130 127 139 149 153 158 159 157 153 149 146 142 137 135 137 135 133 130 131 127 123 122 118 110 101 95 89 85
234 246 253 250 248 247 246 240 243 233 237 293 295 28 8 135 131 99 81 107 131 147 142 144 148 147 145 142 141 141 140 139 141 138 131 127 129 127 119 110 104 102 101 98
220 213 245 253 255 248 266 288 285 248 201 23 26 30 20 35 185 70 61 88 102 109 126 137 140 139 138 138 140 144 145 144 144 136 126 123 125 123 120 119 116 118 120 116
206 206 227 248 256 254 320 324 288 245 94 30 38 37 38 49 51 62 71 88 100 106 119 127 131 132 131 132 137 144 141 141 135 127 125 122 120 119 123 123 127 133 129 124
206 210 217 237 248 252 354 355 18 36 40 42 43 45 54 67 67 63 66 92 101 108 116 124 123 121 123 131 137 136 128 123 122 125 126 126 128 132 125 123 130 136 143 143
225 230 240 235 227 88 50 60 52 39 42 33 31 41 57 66 66 70 67 90 105 109 112 115 121 120 119 126 131 132 124 123 123 121 117 116 118 106 113 127 132 141 164 163
227 239 252 260 110 89 69 62 47 40 39 30 29 31 54 69 70 74 77 78 92 108 115 115 119 127 125 124 123 123 122 120 123 127 125 122 117 113 102 89 84 90 53 74
337 314 248 217 115 74 59 38 31 30 29 24 21 34 52 70 77 75 80 83 84 94 103 112 116 118 122 116 109 110 116 125 131 133 132 133 130 120 98 71 40 48 54 39
315 325 305 328 26 20 29 21 23 22 16 14 22 40 52 63 78 81 90 92 90 96 102 106 110 111 113 113 111 112 117 129 134 136 136 136 129 124 121 111 79 48 57 62